Flag for Canada Weather past 2 weeks in Cornwall, Ontario, Canada

Now
59 °F

Cool.


Feels Like: 59 °F
Forecast: 49 / 67 °F
Wind: 7 mph from East

Location: St Anicet

Current Time: Oct 1, 2014 at 2:17:17 PM

Latest Report: Oct 1, 2014 at 1:00 PM


Visibility: N/A

Pressure: 30.14 "Hg

Humidity: 79%

Dew point: 53 °F

Location of CornwallLocation

Historic Weather in Cornwall — Graph

°F

Cornwall temperature yesterday

Maximum temperature yesterday: 65 °F (at 3:00 PM)
Minimum temperature yesterday: 47 °F (at 7:00 AM)
Average temperature yesterday: 54 °F

Past Weeks' High & Low Weather Summary

 TemperatureHumidityPressure
High81 °F (Sep 27, 3:00 PM)100% (Sep 19, 5:00 AM)30.57 "Hg (Sep 19, 5:00 AM)
Low30 °F (Sep 19, 7:00 AM)34% (Sep 19, 2:00 PM)29.50 "Hg (Sep 21, 5:00 PM)
Average58 °F78%30.09 "Hg
* Reported Sep 16 1:00 PM — Oct 1 1:00 PM, Cornwall, Weather by CustomWeather, © 2014

Note: Actual official high and low records may vary slightly from our data, if they occured in-between our weather recording intervals... More about our weather records

Advertising

Cornwall weather history for previous 24 hours

 ConditionsComfort  
Time TempWeatherWind HumidityBarometerVisibility
1:00 PM
Oct 1
59 °FCool.7 mph79%30.14 "HgN/A
12:00 PM57 °FCool.8 mph82%30.16 "HgN/A
11:00 AM56 °FCool.8 mph85%30.17 "HgN/A
10:00 AM55 °FCool.6 mph81%30.16 "HgN/A
9:00 AM53 °FCool.5 mph89%30.15 "HgN/A
8:00 AM53 °FCool.5 mph91%30.14 "HgN/A
7:00 AM54 °FCool.5 mph90%30.12 "HgN/A
6:00 AM53 °FCool.3 mph97%30.10 "HgN/A
5:00 AM55 °FCool.3 mph91%30.08 "HgN/A
4:00 AM54 °FCool.2 mph93%30.07 "HgN/A
3:00 AM54 °FCool.3 mph92%30.07 "HgN/A
2:00 AM54 °FCool.3 mph92%30.08 "HgN/A
1:00 AM53 °FCool.3 mph93%30.07 "HgN/A
12:00 AM52 °FCool.3 mph94%30.06 "HgN/A
11:00 PM
Sep 30
53 °FCool.6 mph97%30.06 "HgN/A
10:00 PM56 °FCool.5 mph91%30.06 "HgN/A
9:00 PM55 °FCool.6 mph91%30.04 "HgN/A
8:00 PM56 °FCool.6 mph88%30.03 "HgN/A
7:00 PM58 °FCool.7 mph83%30.01 "HgN/A
6:00 PM62 °FCool.8 mph72%29.98 "HgN/A
5:00 PM65 °FMild.7 mph72%29.97 "HgN/A
4:00 PM64 °FMild.10 mph70%29.96 "HgN/A
3:00 PM65 °FMild.8 mph69%29.96 "HgN/A
2:00 PM59 °FCool.8 mph79%29.98 "HgN/A
Weather by CustomWeather, © 2014

See weather overviewHow to use our weather pages